Location: Unspecified
(0.0000°N, 0.0000°E)
Time: 22:37:51
(UTC+01:00)

Vanguard 1 Rocket - Visible Passes

Search period start: 25 March 2017 00:00
Search period end: 04 April 2017 01:00
Orbit: 649 x 4228 km, 34.3° (Epoch: 24 March)

Date Brightness Start Highest point End Pass type
(mag) Time Alt. Az. Time Alt. Az. Time Alt. Az.
25 Mar 10.7 19:17:54 10° NW 19:42:17 44° NNE 19:58:55 15° E visible
25 Mar 9.7 21:50:46 10° NW 22:15:47 86° SW 22:16:14 85° S visible
26 Mar 11.3 00:30:13 10° W 00:33:35 15° W 00:33:35 15° W visible
26 Mar 10.0 21:35:04 10° NW 22:01:21 70° NE 22:09:33 44° ESE visible
27 Mar 10.5 00:11:05 10° WNW 00:26:53 41° WSW 00:26:53 41° WSW visible
27 Mar 10.7 20:20:23 10° NW 20:45:46 53° NNE 21:02:53 16° ESE visible
27 Mar 9.8 22:53:37 10° WNW 23:18:34 72° SW 23:20:12 70° S visible
28 Mar 11.4 01:35:27 10° W 01:37:33 13° WSW 01:37:33 13° WSW visible
28 Mar 10.0 21:37:37 10° NW 22:04:18 83° NE 22:13:33 42° ESE visible
29 Mar 10.6 00:15:04 10° WNW 00:30:53 36° WSW 00:30:53 36° WSW visible
29 Mar 10.6 20:22:52 10° NW 20:48:57 63° NE 21:06:54 15° ESE visible
29 Mar 10.0 22:56:48 10° WNW 23:21:16 60° SW 23:24:14 56° S visible
30 Mar 11.5 01:41:31 10° WSW 01:41:35 10° WSW 01:41:35 10° WSW visible
30 Mar 10.2 21:40:22 10° NW 22:07:05 84° SW 22:17:35 37° SE visible
31 Mar 10.8 00:19:36 10° W 00:34:56 30° SW 00:34:56 30° SW visible
31 Mar 10.6 20:25:26 10° NW 20:51:54 74° NE 21:10:56 14° ESE visible
31 Mar 10.3 23:00:22 10° WNW 23:23:59 50° SW 23:28:16 44° S visible
01 Apr 10.4 21:43:20 10° WNW 22:09:45 71° SW 22:21:35 32° SE visible
02 Apr 10.9 00:24:47 10° W 00:38:56 24° SW 00:38:56 24° SW visible
02 Apr 10.6 20:28:08 10° NW 20:54:39 86° NE 21:14:53 12° SE visible
02 Apr 10.5 23:04:23 10° WNW 23:26:48 41° SW 23:32:13 35° S visible
03 Apr 9.4 06:59:00 10° SSE 07:00:13 11° SSE 07:01:25 10° SE visible
03 Apr 10.6 21:46:38 10° WNW 22:12:25 60° SW 22:25:30 26° SSE visible
04 Apr 11.1 00:30:40 10° WSW 00:42:49 20° SW 00:42:49 20° SW visible
